カタログに戻る

STARLINK-33555

運用中通信VLEO
NORAD 62104·PAYLOAD·🇺🇸 United States

打ち上げ Nov 25, 2024 から Cape Canaveral Space Force Station

Loading…

次のパス (今後24時間)

TLE

最新Source: CelesTrak SupGP

元期: Sep 14, 2026, 22:36 UTC

1 62104C 24220S   26257.94215278  .00006470  00000+0  23433-3 0  2574
2 62104  43.0029 216.8830 0001342 263.4873  83.6821 15.27577637    13

AllMySatでSTARLINK-33555をリアルタイム追跡

Download on the App Store